Location: Los Ranchitos
(37.9930°N, 122.5425°W)
Time: 02:22:56
(UTC+00:00)

Cosmos 2150 Rocket - Pass Details

Date: 21 September 2020
Orbit: 749 x 808 km, 74.0° (Epoch: 27 October)

Event Time Altitude Azimuth Distance (km) Brightness Sun altitude
Rises 03:39:08 0° 202° (SSW) 3,251 7.3 -18.3°
Reaches altitude 10° 03:41:30 10° 204° (SSW) 2,336 6.6 -18.8°
Maximum altitude 03:46:48 73° 289° (WNW) 832 4.3 -19.8°
Drops below altitude 10° 03:52:14 10° 14° (NNE) 2,385 6.6 -20.8°
Sets 03:54:41 0° 17° (NNE) 3,324 7.3 -21.3°
